Location: Manitoulin Island
(45.7026°N, 82.0372°W)
Time: 17:58:28
(UTC-04:00)

ISS - Visible Passes

Search period start: 15 July 2019 00:00
Search period end: 25 July 2019 00:00
Orbit: 409 x 418 km, 51.6° (Epoch: 16 July)

Date Brightness Start Highest point End Pass type
(mag) Time Alt. Az. Time Alt. Az. Time Alt. Az.
15 Jul -3.0 00:58:52 51° NW 00:59:02 52° NNW 01:02:18 10° ENE visible
15 Jul -1.7 02:33:15 10° WNW 02:36:11 28° N 02:39:07 10° ENE visible
15 Jul -2.5 04:10:12 10° NW 04:13:24 43° NNE 04:16:34 10° E visible
15 Jul -1.8 22:30:57 10° S 22:35:23 12° E 22:35:44 10° E visible
16 Jul -3.7 00:06:23 10° WSW 00:09:43 76° NNW 00:13:02 10° ENE visible
16 Jul -1.8 01:43:45 10° WNW 01:46:45 29° N 01:49:43 10° ENE visible
16 Jul -2.0 03:20:54 10° NW 03:24:00 34° NNE 03:27:04 10° E visible
16 Jul -3.9 04:57:34 10° WNW 05:00:52 67° SSW 05:04:08 10° SE visible
16 Jul -3.9 23:17:06 10° SW 23:20:25 70° SSE 23:23:44 10° ENE visible
17 Jul -2.0 00:54:13 10° W 00:57:18 34° NNW 01:00:23 10° NE visible
17 Jul -1.8 02:31:34 10° NW 02:34:33 30° N 02:37:32 10° ENE visible
17 Jul -3.7 04:08:14 10° WNW 04:11:35 79° NNE 04:14:52 10° ESE visible
17 Jul -3.5 22:27:59 10° SW 22:31:10 42° SE 22:34:21 10° ENE visible
18 Jul -2.5 00:04:40 10° W 00:07:53 42° NNW 00:11:04 10° NE visible
18 Jul -1.6 01:42:09 10° WNW 01:45:05 28° N 01:48:01 10° ENE visible
18 Jul -3.0 03:18:57 10° WNW 03:22:13 54° NNE 03:25:29 10° E visible
18 Jul -2.9 04:55:53 10° W 04:58:45 28° SW 05:01:38 10° SSE visible
18 Jul -3.1 23:15:11 10° WSW 23:18:28 57° NNW 23:21:46 10° ENE visible
19 Jul -1.7 00:52:39 10° WNW 00:55:36 28° N 00:58:32 10° ENE visible
19 Jul -2.4 02:29:38 10° NW 02:32:49 40° NNE 02:35:59 10° E visible
19 Jul -3.6 04:06:21 10° WNW 04:09:34 46° SW 04:12:44 10° SE visible
19 Jul -3.8 22:25:46 10° WSW 22:29:07 84° NNW 22:32:28 10° ENE visible
20 Jul -1.8 00:03:05 10° WNW 00:06:06 30° N 00:09:07 10° NE visible
20 Jul -2.0 01:40:18 10° NW 01:43:22 33° NNE 01:45:56 13° ENE visible
20 Jul -2.2 03:16:57 10° WNW 03:18:29 25° WNW 03:18:29 25° WNW visible
20 Jul -2.1 23:13:30 10° W 23:16:38 35° NNW 23:19:44 10° NE visible
21 Jul -1.8 00:50:53 10° WNW 00:53:52 29° N 00:56:07 15° ENE visible
21 Jul -1.7 02:27:36 10° WNW 02:28:52 21° NW 02:28:52 21° NW visible
21 Jul -2.6 22:23:56 10° W 22:27:10 45° NNW 22:30:24 10° NE visible
22 Jul -1.7 00:01:25 10° WNW 00:04:21 28° N 00:07:18 10° ENE visible
22 Jul -2.1 01:38:15 10° NW 01:40:22 32° NW 01:40:22 32° NW visible
22 Jul -1.7 23:11:51 10° WNW 23:14:49 29° N 23:17:47 10° ENE visible
23 Jul -2.4 00:48:54 10° NW 00:52:03 38° NNE 00:52:10 37° NNE visible
23 Jul -1.9 22:22:14 10° WNW 22:25:17 32° N 22:28:20 10° NE visible
23 Jul -2.0 23:59:30 10° NW 00:02:33 32° N 00:04:06 21° ENE visible
24 Jul -1.2 01:36:10 10° WNW 01:36:54 16° WNW 01:36:54 16° WNW visible
24 Jul -1.8 23:10:01 10° WNW 23:13:00 29° N 23:15:58 10° ENE visible
